Location: Dal�� Lhota
(48.7500°N, 14.0167°E)
Time: 23:23:41
(UTC+00:00)

Cosmos 2142 Rocket - Pass Details

Date: 24 September 2020
Orbit: 952 x 1005 km, 82.9° (Epoch: 25 October)

Event Time Altitude Azimuth Distance (km) Brightness Sun altitude
Exits shadow 19:24:34 18° 185° (S) 2,206 6.1 -24.2°
Maximum altitude 19:29:25 87° 98° (E) 983 4.4 -24.9°
Drops below altitude 10° 19:35:39 10° 10° (N) 2,716 7.1 -25.8°
Sets 19:38:09 0° 10° (N) 3,661 7.8 -26.2°
